Weather History for Camden, AR

Change the Weather History Date:

Thursday, April 18, 2013

  Actual Average Record
Temperature  
Mean Temperature 62 °F -  
Max Temperature 77 °F 76 °F 90 °F (1948)
Min Temperature 44 °F 53 °F 36 °F (1936)
Degree Days  
Heating Degree Days 4    
Growing Degree Days 12 (Base 50)    
Moisture  
Dew Point 59 °F    
Average Humidity 79    
Maximum Humidity 94    
Minimum Humidity 69    
Precipitation  
Precipitation 0.72 in - - ()
Sea Level Pressure  
Sea Level Pressure 29.79 in    
Wind  
Wind Speed 11 mph (SSW)    
Max Wind Speed 17 mph    
Max Gust Speed 26 mph    
Visibility 8 miles    
Events Rain    
Averages and records for this station are not official NWS values.
T = Trace of Precipitation, MM = Missing Value Source: NWS Daily Summary

Daily Weather History Graph

Daily Weather History Graph

Search for Another Location

Airport:

Trip Planner

Search our weather history database for the weather conditions in past years. The results will help you decide how hot, cold, wet, or windy it might be!

Date:

Astronomy

Apr. 18, 2013 Rise Set
Actual Time 6:36 AM CDT 7:44 PM CDT
Civil Twilight 6:10 AM CDT 8:10 PM CDT
Nautical Twilight 5:40 AM CDT 8:41 PM CDT
Astronomical Twilight 5:08 AM CDT 9:12 PM CDT
Moon 12:51 PM CDT (4/18) 1:55 AM CDT (4/18)
Length of Visible Light 13h 59m
Length of Day
13h 07m
First Quarter, 52% of the Moon is Illuminated
Apr 18
First Quarter
Apr 25
Full
May 2
Last Quarter
May 9
New
May 17
First Quarter

Hourly Weather History & Observations

Time (CDT) Temp. Windchill Dew Point Humidity Pressure Visibility Wind Dir Wind Speed Gust Speed Precip Events Conditions
12:15 AM 77.0 °F - 66.2 °F 69% 29.79 in 10.0 mi South 9.2 mph 20.7 mph N/A   Clear
12:55 AM 75.2 °F - 66.2 °F 73% 29.78 in 10.0 mi South 12.7 mph 18.4 mph N/A   Partly Cloudy
1:15 AM 75.2 °F - 66.2 °F 73% 29.77 in 10.0 mi SSE 15.0 mph 19.6 mph N/A   Clear
1:35 AM 75.2 °F - 66.2 °F 73% 29.77 in 10.0 mi SSE 11.5 mph 24.2 mph N/A   Partly Cloudy
1:55 AM 75.2 °F - 66.2 °F 73% 29.78 in 10.0 mi South 11.5 mph 17.3 mph N/A   Scattered Clouds
2:15 AM 75.2 °F - 66.2 °F 73% 29.76 in 10.0 mi South 16.1 mph 21.9 mph N/A   Partly Cloudy
2:35 AM 75.2 °F - 66.2 °F 73% 29.77 in 10.0 mi South 12.7 mph 19.6 mph N/A   Mostly Cloudy
2:55 AM 75.2 °F - 66.2 °F 73% 29.76 in 10.0 mi South 11.5 mph 18.4 mph N/A   Overcast
3:15 AM 75.2 °F - 66.2 °F 73% 29.75 in 10.0 mi South 13.8 mph 18.4 mph N/A   Mostly Cloudy
3:35 AM 75.2 °F - 66.2 °F 73% 29.73 in 10.0 mi SSE 12.7 mph 20.7 mph N/A   Mostly Cloudy
3:55 AM 75.2 °F - 66.2 °F 73% 29.71 in 10.0 mi South 12.7 mph 23.0 mph N/A   Mostly Cloudy
4:15 AM 75.2 °F - 66.2 °F 73% 29.70 in 10.0 mi SSE 13.8 mph 21.9 mph N/A   Mostly Cloudy
4:35 AM 75.2 °F - 66.2 °F 73% 29.70 in 10.0 mi SSE 17.3 mph 24.2 mph N/A   Overcast
4:55 AM 75.2 °F - 66.2 °F 73% 29.70 in 10.0 mi South 10.4 mph 20.7 mph N/A   Overcast
5:15 AM 75.2 °F - 66.2 °F 73% 29.71 in 10.0 mi South 13.8 mph 20.7 mph N/A   Overcast
5:35 AM 75.2 °F - 66.2 °F 73% 29.72 in 10.0 mi South 12.7 mph 24.2 mph N/A   Overcast
5:55 AM 75.2 °F - 64.4 °F 69% 29.72 in 10.0 mi South 16.1 mph 25.3 mph N/A   Overcast
6:15 AM 75.2 °F - 64.4 °F 69% 29.72 in 10.0 mi South 9.2 mph 24.2 mph N/A   Overcast
6:35 AM 75.2 °F - 64.4 °F 69% 29.71 in 10.0 mi South 12.7 mph 25.3 mph N/A   Overcast
6:55 AM 75.2 °F - 64.4 °F 69% 29.70 in 10.0 mi SSE 15.0 mph 21.9 mph N/A   Mostly Cloudy
7:15 AM 75.2 °F - 64.4 °F 69% 29.71 in 10.0 mi SSE 15.0 mph 23.0 mph N/A   Mostly Cloudy
7:55 AM 75.2 °F - 64.4 °F 69% 29.73 in 10.0 mi South 10.4 mph 20.7 mph N/A   Overcast
8:15 AM 75.2 °F - 64.4 °F 69% 29.74 in 10.0 mi South 9.2 mph 16.1 mph N/A   Overcast
8:55 AM 75.2 °F - 66.2 °F 73% 29.76 in 10.0 mi South 8.1 mph - N/A   Overcast
9:15 AM 73.4 °F - 66.2 °F 78% 29.78 in 9.0 mi SSW 8.1 mph - N/A   Overcast
9:35 AM 73.4 °F - 66.2 °F 78% 29.78 in 5.0 mi SSW 5.8 mph - N/A Rain Light Rain
9:55 AM 71.6 °F - 66.2 °F 83% 29.78 in 2.5 mi South 6.9 mph - N/A Rain Light Rain
10:15 AM 71.6 °F - 68.0 °F 88% 29.76 in 5.0 mi SSE 9.2 mph - 0.01 in Rain Light Rain
10:35 AM 73.4 °F - 68.0 °F 83% 29.75 in 8.0 mi SSE 12.7 mph 17.3 mph 0.01 in   Scattered Clouds
10:55 AM 75.2 °F - 68.0 °F 78% 29.74 in 8.0 mi South 13.8 mph 18.4 mph 0.01 in   Clear
11:15 AM 75.2 °F - 66.2 °F 73% 29.73 in 9.0 mi SSE 13.8 mph 19.6 mph N/A   Scattered Clouds
11:35 AM 75.2 °F - 66.2 °F 73% 29.71 in 10.0 mi SSE 13.8 mph 26.5 mph N/A   Partly Cloudy
11:55 AM 75.2 °F - 66.2 °F 73% 29.70 in 9.0 mi South 13.8 mph 20.7 mph N/A   Partly Cloudy
12:15 PM 75.2 °F - 66.2 °F 73% 29.69 in 9.0 mi South 15.0 mph 20.7 mph N/A   Scattered Clouds
12:35 PM 75.2 °F - 66.2 °F 73% 29.68 in 9.0 mi South 9.2 mph 20.7 mph N/A   Mostly Cloudy
12:55 PM 68.0 °F - 62.6 °F 83% 29.72 in 0.5 mi NNW 5.8 mph 24.2 mph 0.22 in Rain Heavy Rain
1:15 PM 66.2 °F - 62.6 °F 88% 29.71 in 0.8 mi Calm Calm - 0.13 in Rain Heavy Rain
1:35 PM 66.2 °F - 64.4 °F 94% 29.72 in 3.0 mi WSW 4.6 mph - 0.17 in Rain Heavy Rain
1:55 PM 66.2 °F - 62.6 °F 88% 29.71 in 2.0 mi NW 3.5 mph - 0.21 in Rain Heavy Rain
2:55 PM 64.4 °F - 60.8 °F 88% 29.72 in 5.0 mi WNW 6.9 mph 18.4 mph 0.06 in Rain Light Rain
3:15 PM 62.6 °F - 57.2 °F 82% 29.77 in 2.0 mi WNW 15.0 mph 24.2 mph 0.04 in Rain Heavy Rain
4:15 PM 57.2 °F - 53.6 °F 88% 29.77 in 5.0 mi West 10.4 mph 17.3 mph 0.01 in Rain Light Rain
4:35 PM 55.4 °F - 51.8 °F 88% 29.76 in 4.0 mi West 10.4 mph 19.6 mph 0.02 in Rain Light Rain
5:15 PM 53.6 °F - 51.8 °F 94% 29.82 in 2.0 mi West 10.4 mph 16.1 mph 0.07 in Rain Heavy Rain
5:35 PM 53.6 °F - 50.0 °F 88% 29.81 in 5.0 mi WNW 10.4 mph 18.4 mph 0.10 in Rain Light Rain
5:55 PM 53.6 °F - 50.0 °F 88% 29.81 in 1.8 mi NNW 10.4 mph - 0.11 in Rain Light Rain
6:15 PM 50.0 °F - 48.2 °F 94% 29.87 in 4.0 mi West 10.4 mph 23.0 mph N/A Rain Light Rain
6:35 PM 50.0 °F - 46.4 °F 87% 29.83 in 3.0 mi NNW 13.8 mph 17.3 mph 0.04 in Rain Heavy Rain
6:55 PM 50.0 °F - 46.4 °F 87% 29.80 in 4.0 mi NNW 8.1 mph - 0.05 in Rain Light Rain
7:15 PM 48.2 °F - 46.4 °F 93% 29.86 in 10.0 mi NNW 15.0 mph - N/A Rain Light Rain
7:35 PM 48.2 °F - 44.6 °F 87% 29.89 in 10.0 mi NW 9.2 mph 18.4 mph N/A   Mostly Cloudy
7:55 PM 48.2 °F - 44.6 °F 87% 29.90 in 10.0 mi NNW 10.4 mph 17.3 mph N/A   Overcast
8:15 PM 48.2 °F - 42.8 °F 82% 29.91 in 10.0 mi NW 8.1 mph - N/A   Overcast
8:35 PM 48.2 °F - 44.6 °F 87% 29.92 in 10.0 mi NW 6.9 mph - N/A   Mostly Cloudy
10:15 PM 46.4 °F 42.9 °F 41.0 °F 81% 29.99 in 10.0 mi NW 6.9 mph - N/A   Overcast
10:35 PM 46.4 °F 43.5 °F 41.0 °F 81% 30.00 in 10.0 mi NW 5.8 mph - N/A   Overcast
10:55 PM 46.4 °F 42.9 °F 41.0 °F 81% 30.00 in 10.0 mi NW 6.9 mph - N/A   Overcast
11:15 PM 46.4 °F 43.5 °F 39.2 °F 76% 30.01 in 10.0 mi NW 5.8 mph 17.3 mph N/A   Overcast
11:35 PM 46.4 °F 42.4 °F 37.4 °F 71% 30.01 in 10.0 mi NW 8.1 mph - N/A   Overcast
11:55 PM 44.6 °F 40.7 °F 37.4 °F 76% 30.02 in 10.0 mi NW 6.9 mph - N/A   Overcast